Location: Laterina
(43.5167°N, 11.7167°E)
Time: 16:10:25
(UTC+00:00)

SJ 16-02 - Pass Details

Date: 24 September 2020
Orbit: 606 x 616 km, 75.0° (Epoch: 26 October)

Event Time Altitude Azimuth Distance (km) Brightness Sun altitude
Rises 17:49:29 0° 249° (WSW) 2,857 6.0 -8.6°
Reaches altitude 10° 17:52:57 10° 279° (W) 1,958 5.6 -9.3°
Maximum altitude 17:54:54 13° 305° (NW) 1,787 4.8 -9.6°
Drops below altitude 10° 17:56:52 10° 332° (NNW) 1,964 4.5 -10.0°
Sets 18:00:22 0° 2° (N) 2,874 4.9 -10.6°
